When you browse on this site, cookies collect data to enhance your experience and personalize the content and advertising you see.
Visit our Privacy Policy to learn more. By continuing to use the site, you agree to this use of cookies and data.
  • In United Kingdom
  • List of Countries
  • For 7 days
  • Water Temperature
  • Satellite Maps
  • Weather Map
  • Weather Widgets
  • user-avatar
    Login

    Hourly Weather Granada

    Today, 17 January, Thursday

    Time Temperature Precipitation Wind Pressure Humidity
    00:00 +6°C° 0 mm 1 mps 701 mmHg 90%
    01:00 +6°C° 0 mm 1 mps 700 mmHg 90%
    02:00 +4°C° 0 mm 0 mps 700 mmHg 89%
    03:00 +4°C° 0 mm 0 mps 700 mmHg 89%
    04:00 +5°C° 0 mm 1 mps 700 mmHg 88%
    05:00 +5°C° 0 mm 1 mps 700 mmHg 87%
    06:00 +4°C° 0 mm 1 mps 700 mmHg 85%
    07:00 +6°C° 0 mm 1 mps 700 mmHg 79%
    08:00 +7°C° 0 mm 1 mps 700 mmHg 73%
    09:00 +8°C° 0 mm 1 mps 701 mmHg 66%
    10:00 +9°C° 0 mm 1 mps 701 mmHg 62%
    11:00 +10°C° 0 mm 1 mps 701 mmHg 58%
    12:00 +10°C° 0 mm 2 mps 701 mmHg 54%
    13:00 +10°C° 0 mm 2 mps 701 mmHg 54%
    14:00 +10°C° 0 mm 2 mps 700 mmHg 54%
    15:00 +10°C° 0 mm 2 mps 700 mmHg 53%
    16:00 +10°C° 0 mm 1 mps 700 mmHg 60%
    17:00 +9°C° 0 mm 1 mps 700 mmHg 67%
    18:00 +7°C° 0 mm 1 mps 700 mmHg 73%
    19:00 +7°C° 0 mm 1 mps 700 mmHg 77%
    20:00 +6°C° 0 mm 1 mps 700 mmHg 80%
    21:00 +6°C° 0 mm 1 mps 700 mmHg 84%
    22:00 +6°C° 0 mm 1 mps 701 mmHg 85%
    23:00 +5°C° 0 mm 1 mps 701 mmHg 85%

    Tomorrow, 18 January, Friday

    Time Temperature Precipitation Wind Pressure Humidity
    00:00 +5°C° 0 mm 1 mps 701 mmHg 86%
    01:00 +5°C° 0 mm 1 mps 701 mmHg 86%
    02:00 +5°C° 0 mm 1 mps 701 mmHg 85%
    03:00 +4°C° 0 mm 1 mps 700 mmHg 85%
    04:00 +4°C° 0 mm 1 mps 700 mmHg 84%
    05:00 +4°C° 0 mm 1 mps 701 mmHg 83%
    06:00 +4°C° 0 mm 1 mps 701 mmHg 82%
    07:00 +5°C° 0 mm 1 mps 701 mmHg 77%
    08:00 +6°C° 0 mm 1 mps 701 mmHg 73%
    09:00 +8°C° 0 mm 1 mps 702 mmHg 68%
    10:00 +9°C° 0 mm 1 mps 702 mmHg 62%
    11:00 +10°C° 0 mm 1 mps 702 mmHg 57%
    12:00 +10°C° 0 mm 2 mps 702 mmHg 52%
    13:00 +10°C° 0 mm 2 mps 702 mmHg 51%
    14:00 +10°C° 0 mm 2 mps 702 mmHg 50%
    15:00 +10°C° 0 mm 2 mps 701 mmHg 49%
    16:00 +9°C° 0 mm 2 mps 701 mmHg 55%
    17:00 +8°C° 0 mm 2 mps 701 mmHg 62%
    18:00 +7°C° 0 mm 1 mps 701 mmHg 68%
    19:00 +7°C° 0 mm 1 mps 701 mmHg 71%
    20:00 +6°C° 0 mm 1 mps 702 mmHg 75%
    21:00 +5°C° 0 mm 1 mps 702 mmHg 78%
    22:00 +5°C° 0 mm 1 mps 702 mmHg 78%
    23:00 +5°C° 0 mm 1 mps 702 mmHg 79%

    Day after tomorrow, 19 January, Saturday

    Time Temperature Precipitation Wind Pressure Humidity
    00:00 +5°C° 0 mm 1 mps 702 mmHg 79%
    01:00 +5°C° 0 mm 1 mps 702 mmHg 80%
    02:00 +5°C° 0 mm 1 mps 702 mmHg 80%
    03:00 +4°C° 0 mm 1 mps 701 mmHg 81%
    04:00 +5°C° 0 mm 1 mps 701 mmHg 80%
    05:00 +5°C° 0 mm 1 mps 701 mmHg 79%
    06:00 +5°C° 0 mm 1 mps 701 mmHg 77%
    07:00 +5°C° 0.1 mm 2 mps 702 mmHg 74%
    08:00 +5°C° 0.1 mm 2 mps 702 mmHg 71%
    09:00 +6°C° 0.1 mm 2 mps 702 mmHg 68%
    10:00 +7°C° 0.5 mm 2 mps 702 mmHg 71%
    11:00 +7°C° 0.5 mm 2 mps 702 mmHg 75%
    12:00 +8°C° 0.5 mm 2 mps 702 mmHg 78%
    13:00 +8°C° 0.5 mm 2 mps 701 mmHg 80%
    14:00 +9°C° 0.5 mm 3 mps 701 mmHg 82%
    15:00 +9°C° 0.5 mm 3 mps 700 mmHg 84%
    16:00 +9°C° 0.4 mm 3 mps 700 mmHg 86%
    17:00 +8°C° 0.4 mm 3 mps 700 mmHg 88%
    18:00 +8°C° 0.4 mm 2 mps 700 mmHg 90%
    19:00 +8°C° 1 mm 2 mps 699 mmHg 90%
    20:00 +8°C° 1 mm 3 mps 699 mmHg 90%
    21:00 +8°C° 1 mm 3 mps 699 mmHg 90%
    22:00 +8°C° 1.9 mm 3 mps 699 mmHg 91%
    23:00 +8°C° 1.9 mm 2 mps 699 mmHg 92%

    20 January, Sunday

    Time Temperature Precipitation Wind Pressure Humidity
    00:00 +8°C° 1.9 mm 2 mps 698 mmHg 92%
    01:00 +8°C° 0.6 mm 2 mps 698 mmHg 93%
    02:00 +8°C° 0.6 mm 2 mps 698 mmHg 93%
    03:00 +8°C° 0.6 mm 3 mps 698 mmHg 94%
    04:00 +8°C° 0.2 mm 2 mps 697 mmHg 93%
    05:00 +8°C° 0.2 mm 2 mps 697 mmHg 91%
    06:00 +7°C° 0.2 mm 2 mps 697 mmHg 90%
    07:00 +7°C° 0.5 mm 2 mps 697 mmHg 89%
    08:00 +8°C° 0.5 mm 2 mps 698 mmHg 88%
    09:00 +8°C° 0.5 mm 2 mps 698 mmHg 87%
    10:00 +9°C° 0.1 mm 2 mps 698 mmHg 83%
    11:00 +9°C° 0.1 mm 2 mps 698 mmHg 79%
    12:00 +10°C° 0.1 mm 3 mps 699 mmHg 76%
    13:00 +10°C° 0.1 mm 3 mps 699 mmHg 75%
    14:00 +10°C° 0.1 mm 3 mps 699 mmHg 75%
    15:00 +10°C° 0.1 mm 3 mps 698 mmHg 75%
    16:00 +9°C° 0.1 mm 3 mps 699 mmHg 80%
    17:00 +8°C° 0.1 mm 2 mps 699 mmHg 85%
    18:00 +8°C° 0.1 mm 2 mps 700 mmHg 90%
    19:00 +7°C° 0 mm 2 mps 701 mmHg 90%
    20:00 +6°C° 0 mm 2 mps 701 mmHg 89%
    21:00 +6°C° 0 mm 2 mps 702 mmHg 88%
    22:00 +5°C° 0 mm 2 mps 702 mmHg 87%
    23:00 +5°C° 0 mm 2 mps 702 mmHg 85%

    21 January, Monday

    Time Temperature Precipitation Wind Pressure Humidity
    00:00 +4°C° 0 mm 2 mps 703 mmHg 83%
    01:00 +4°C° 0 mm 2 mps 703 mmHg 81%
    02:00 +3°C° 0 mm 2 mps 703 mmHg 79%
    03:00 +3°C° 0 mm 2 mps 703 mmHg 76%
    04:00 +3°C° 0 mm 2 mps 703 mmHg 74%
    05:00 +2°C° 0 mm 2 mps 703 mmHg 72%
    06:00 +2°C° 0 mm 2 mps 703 mmHg 69%
    07:00 +3°C° 0 mm 2 mps 704 mmHg 66%
    08:00 +4°C° 0 mm 2 mps 705 mmHg 63%
    09:00 +5°C° 0 mm 2 mps 705 mmHg 60%
    10:00 +6°C° 0 mm 2 mps 705 mmHg 56%
    11:00 +7°C° 0 mm 3 mps 706 mmHg 52%
    12:00 +9°C° 0 mm 3 mps 706 mmHg 49%
    13:00 +9°C° 0 mm 3 mps 705 mmHg 49%
    14:00 +9°C° 0 mm 3 mps 705 mmHg 50%
    15:00 +9°C° 0 mm 3 mps 704 mmHg 50%
    16:00 +7°C° 0 mm 3 mps 704 mmHg 56%
    17:00 +6°C° 0 mm 2 mps 704 mmHg 61%
    18:00 +5°C° 0 mm 2 mps 704 mmHg 67%
    19:00 +4°C° 0 mm 2 mps 704 mmHg 67%
    20:00 +4°C° 0 mm 2 mps 705 mmHg 68%
    21:00 +3°C° 0 mm 2 mps 705 mmHg 69%
    22:00 +4°C° 0 mm 1 mps 705 mmHg 68%
    23:00 +4°C° 0 mm 1 mps 705 mmHg 68%

    22 January, Tuesday

    Time Temperature Precipitation Wind Pressure Humidity
    00:00 +4°C° 0 mm 1 mps 704 mmHg 68%
    01:00 +3°C° 0 mm 1 mps 704 mmHg 66%
    02:00 +3°C° 0 mm 1 mps 704 mmHg 65%
    03:00 +3°C° 0 mm 1 mps 703 mmHg 64%
    04:00 +3°C° 0 mm 1 mps 703 mmHg 63%
    05:00 +3°C° 0 mm 1 mps 702 mmHg 63%
    06:00 +3°C° 0 mm 1 mps 702 mmHg 62%
    07:00 +3°C° 0 mm 2 mps 702 mmHg 59%
    08:00 +4°C° 0 mm 2 mps 702 mmHg 57%
    09:00 +5°C° 0 mm 2 mps 702 mmHg 55%
    10:00 +7°C° 0 mm 3 mps 702 mmHg 53%
    11:00 +8°C° 0 mm 3 mps 701 mmHg 51%
    12:00 +8°C° 0 mm 4 mps 701 mmHg 49%
    13:00 +7°C° 0 mm 4 mps 700 mmHg 49%
    14:00 +7°C° 0 mm 4 mps 699 mmHg 50%
    15:00 +7°C° 0 mm 4 mps 698 mmHg 50%
    16:00 +6°C° 0.4 mm 4 mps 697 mmHg 61%
    17:00 +5°C° 0.4 mm 4 mps 697 mmHg 73%
    18:00 +4°C° 0.4 mm 3 mps 696 mmHg 85%
    19:00 +4°C° 0.6 mm 4 mps 696 mmHg 85%
    20:00 +3°C° 0.6 mm 5 mps 696 mmHg 86%
    21:00 +3°C° 0.6 mm 6 mps 696 mmHg 87%
    22:00 +2°C° 0.1 mm 5 mps 696 mmHg 87%
    23:00 +1°C° 0.1 mm 4 mps 697 mmHg 87%
    Show more